Hourly Data Report for September 09, 2017

All times are specified in Local Standard Time (LST). Add 1 hour to adjust for Daylight Saving Time where and when it is observed.

OTTAWA INTL A
ONTARIO

45°19'00.000" N
75°40'00.000" W
114.90 m
6106001
71628
YOW

Download Data

Hourly Data (September 2017)
Hourly Data Report for September 9, 2017
Temp Definition
°C
Dew Point Temp Definition
°C
Rel Hum Definition
%
Wind Dir Definition
10's deg

Wind Spd Definition
km/h
Visibility Definition
km
Stn Press Definition
kPa
Hmdx Definition


Wind Chill Definition


Weather Definition


TIME
00:00 Legend Double Dagger 11.2 7.0 75 32 23 24.1 101.06     LegendNANA
01:00 Legend Double Dagger 11.0 7.0 76 33 23 24.1 101.06     Mostly Cloudy
02:00 Legend Double Dagger 10.7 6.8 77 33 25 24.1 101.08     LegendNANA
03:00 Legend Double Dagger 10.6 6.9 78 32 18 24.1 101.11     LegendNANA
04:00 Legend Double Dagger 10.5 6.7 77 32 17 24.1 101.15     Mostly Cloudy
05:00 Legend Double Dagger 10.5 6.7 77 33 19 24.1 101.21     LegendNANA
06:00 Legend Double Dagger 10.6 6.8 77 33 16 24.1 101.28     LegendNANA
07:00 Legend Double Dagger 10.9 7.1 77 32 17 24.1 101.34     Mostly Cloudy
08:00 Legend Double Dagger 11.9 7.3 73 33 17 24.1 101.40     LegendNANA
09:00 Legend Double Dagger 14.4 8.5 68 32 21 24.1 101.46     LegendNANA
10:00 Legend Double Dagger 16.1 8.0 59 36 17 24.1 101.47     Mainly Clear
11:00 Legend Double Dagger 17.5 7.5 52 33 21 24.1 101.48     LegendNANA
12:00 Legend Double Dagger 18.6 7.0 47 1 25 24.1 101.47     LegendNANA
13:00 Legend Double Dagger 19.0 7.0 45 33 22 24.1 101.45     Mainly Clear
14:00 Legend Double Dagger 18.9 7.7 48 31 26 24.1 101.42     LegendNANA
15:00 Legend Double Dagger 18.4 6.4 45 33 20 24.1 101.40     LegendNANA
16:00 Legend Double Dagger 18.0 5.8 44 34 21 24.1 101.41     Mainly Clear
17:00 Legend Double Dagger 17.2 5.6 46 34 19 24.1 101.43     LegendNANA
18:00 Legend Double Dagger 16.0 5.3 49 34 21 24.1 101.45     LegendNANA
19:00 Legend Double Dagger 14.3 5.8 57 35 13 24.1 101.51     Clear
20:00 Legend Double Dagger 13.6 5.8 59 36 12 24.1 101.55     LegendNANA
21:00 Legend Double Dagger 12.3 6.1 66 36 11 24.1 101.57     LegendNANA
22:00 Legend Double Dagger 11.2 6.0 70 36 10 24.1 101.59     Clear
23:00 Legend Double Dagger 9.0 5.8 80 32 7 24.1 101.58     LegendNANA

Notes on Data Quality.

Legend

  • E = Estimated
  • M = Missing
  • NA = Not Available
  • ‡ = Partner data that is not subject to review by the National Climate Archives
Date modified: